�N����,����,�~����,�C��,���x,�C��,����,���ϕ���,�ő�u�ԕ���,�ő厞����,���˗�,�I�_���x,�n�����x,�ő啗���N��,DTYPE
"20/03/13","00:10",0.0,4.1,85.7,1017.3,323.9,1.6,1.9,331.3,0.00,2.0,10.3,"00:07:56",1
"20/03/13","00:20",0.0,3.9,86.1,1017.1,296.5,1.7,2.0,317.6,0.00,1.8,10.4,"00:10:48",1
"20/03/13","00:30",0.0,4.1,86.6,1017.1,283.2,1.6,2.1,298.6,0.00,2.1,10.1,"00:28:32",1
"20/03/13","00:40",0.0,4.3,86.9,1016.8,315.8,1.8,2.9,319.2,0.00,2.4,10.2,"00:33:48",1
"20/03/13","00:50",0.0,3.9,87.1,1016.8,319.2,1.6,2.2,320.3,0.00,2.0,9.9,"00:48:08",1
"20/03/13","01:00",0.0,3.5,87.4,1016.8,318.4,1.8,2.4,333.3,0.00,1.6,10.0,"00:53:44",1
"20/03/13","01:10",0.0,3.4,88.0,1016.8,298.4,1.5,2.1,300.3,0.00,1.6,10.0,"01:09:14",1
"20/03/13","01:20",0.0,3.4,88.2,1016.8,300.3,1.6,2.1,313.8,0.00,1.7,9.9,"01:10:32",1
"20/03/13","01:30",0.0,3.4,88.5,1016.6,315.2,1.8,2.6,312.5,0.00,1.7,10.0,"01:25:04",1
"20/03/13","01:40",0.0,3.3,88.8,1016.6,315.9,1.6,2.6,320.2,0.00,1.7,9.7,"01:31:12",1
"20/03/13","01:50",0.0,3.1,89.1,1016.6,318.4,2.1,2.8,322.3,0.00,1.5,9.7,"01:41:52",1
"20/03/13","02:00",0.0,2.9,89.4,1016.4,308.6,1.8,2.7,319.3,0.00,1.4,9.7,"01:58:00",1
"20/03/13","02:10",0.0,2.7,89.7,1016.4,311.3,2.1,2.5,326.7,0.00,1.2,9.4,"02:00:48",1
"20/03/13","02:20",0.0,3.0,90.1,1016.4,319.8,2.0,2.7,329.1,0.00,1.6,9.5,"02:17:04",1
"20/03/13","02:30",0.0,2.8,90.3,1016.1,291.8,1.0,1.3,317.8,0.00,1.4,9.4,"02:20:08",1
"20/03/13","02:40",0.0,2.8,90.5,1016.1,310.4,2.1,2.9,317.7,0.00,1.4,9.2,"02:37:28",1
"20/03/13","02:50",0.0,2.5,90.8,1016.1,319.6,2.3,3.2,323.5,0.00,1.2,9.4,"02:44:00",1
"20/03/13","03:00",0.0,2.5,91.1,1016.4,301.5,1.7,2.1,321.6,0.00,1.2,9.5,"02:50:08",1
"20/03/13","03:10",0.0,2.6,91.3,1016.1,304.4,1.8,2.7,318.5,0.00,1.4,9.2,"03:01:52",1
"20/03/13","03:20",0.0,2.9,91.5,1015.9,279.2,1.7,2.1,267.4,0.00,1.7,9.1,"03:14:40",1
"20/03/13","03:30",0.0,3.1,91.7,1015.9,297.6,1.7,2.5,260.4,0.00,1.9,9.2,"03:20:56",1
"20/03/13","03:40",0.0,2.7,91.7,1015.9,327.3,2.3,2.7,330.1,0.00,1.5,9.0,"03:35:28",1
"20/03/13","03:50",0.0,2.4,92.0,1015.4,311.5,2.0,2.5,319.8,0.00,1.3,9.2,"03:42:00",1
"20/03/13","04:00",0.0,2.4,92.2,1015.6,290.3,0.7,2.1,316.0,0.00,1.3,9.1,"03:50:08",1
"20/03/13","04:10",0.0,2.4,92.5,1015.6,322.8,2.0,2.6,325.3,0.00,1.4,9.0,"04:02:32",1
"20/03/13","04:20",0.0,2.2,92.6,1015.2,316.0,2.2,2.7,324.6,0.00,1.2,8.9,"04:12:00",1
"20/03/13","04:30",0.0,2.2,92.9,1015.6,282.0,1.6,2.1,262.3,0.00,1.2,9.0,"04:28:00",1
"20/03/13","04:40",0.0,2.4,92.9,1015.4,306.9,2.2,2.8,318.9,0.00,1.4,8.6,"04:36:16",1
"20/03/13","04:50",0.0,2.4,93.1,1015.4,313.0,2.1,2.6,329.1,0.00,1.4,8.9,"04:43:20",1
"20/03/13","05:00",0.0,2.2,93.2,1015.4,288.9,1.5,1.6,299.6,0.00,1.3,8.8,"04:50:08",1
"20/03/13","05:10",0.0,2.3,93.5,1015.4,297.4,2.0,2.8,318.4,0.00,1.4,8.7,"05:05:36",1
"20/03/13","05:20",0.0,2.4,93.5,1015.4,296.0,1.8,2.1,307.2,0.00,1.5,8.7,"05:17:52",1
"20/03/13","05:30",0.0,2.5,93.6,1015.2,310.4,2.2,2.5,311.6,0.00,1.6,8.6,"05:23:44",1
"20/03/13","05:40",0.0,2.3,93.7,1015.9,315.8,1.7,2.2,325.8,0.00,1.4,8.7,"05:30:08",1
"20/03/13","05:50",0.0,2.0,93.9,1015.6,293.8,1.1,2.2,319.4,0.00,1.2,8.5,"05:47:28",1
"20/03/13","06:00",0.0,1.6,94.2,1015.4,320.3,2.1,3.1,320.0,0.00,0.8,8.4,"05:52:08",1
"20/03/13","06:10",0.0,1.7,94.4,1015.9,323.3,2.2,2.9,317.5,0.00,0.9,8.6,"06:07:52",1
"20/03/13","06:20",0.0,1.5,94.5,1015.6,309.5,1.3,2.6,320.8,0.00,0.8,8.5,"06:10:16",1
"20/03/13","06:30",0.0,1.6,94.7,1015.6,320.5,1.6,1.9,316.9,0.00,0.9,8.7,"06:24:08",1
"20/03/13","06:40",0.0,1.5,94.6,1015.2,294.9,1.6,2.2,311.5,0.00,0.8,8.3,"06:33:28",1
"20/03/13","06:50",0.0,1.4,94.9,1015.4,300.8,1.6,1.9,317.6,0.00,0.7,8.4,"06:45:20",1
"20/03/13","07:00",0.0,1.5,95.1,1015.2,324.1,2.0,2.4,321.3,0.00,0.8,8.4,"06:52:24",1
"20/03/13","07:10",0.0,1.8,95.2,1015.4,309.7,2.0,2.5,321.7,0.00,1.2,8.1,"07:00:02",1
"20/03/13","07:20",0.0,2.3,95.2,1014.7,305.5,1.8,3.1,324.3,0.00,1.7,8.2,"07:11:44",1
"20/03/13","07:30",0.0,2.7,95.3,1014.7,274.1,0.7,1.0,282.3,0.01,2.1,8.3,"07:22:24",1
"20/03/13","07:40",0.0,3.4,95.3,1014.9,167.5,0.2,1.0,297.5,0.03,2.8,8.3,"07:39:56",1
"20/03/13","07:50",0.0,4.1,95.2,1014.7,307.4,1.5,1.8,318.7,0.04,3.4,8.3,"07:41:56",1
"20/03/13","08:00",0.0,4.6,95.1,1014.9,302.3,1.2,2.0,332.9,0.04,3.9,8.1,"07:59:38",1
"20/03/13","08:10",0.0,4.8,95.2,1014.7,317.2,1.5,2.1,317.8,0.06,4.1,8.4,"08:07:16",1
"20/03/13","08:20",0.0,5.6,94.9,1015.4,306.1,0.7,1.8,309.2,0.08,4.9,8.5,"08:10:22",1
"20/03/13","08:30",0.0,5.5,94.6,1016.1,127.5,0.2,0.8,142.9,0.07,4.7,8.6,"08:29:12",1
"20/03/13","08:40",0.0,5.9,94.3,1016.4,128.0,0.5,0.9,129.2,0.10,5.1,8.5,"08:30:40",1
"20/03/13","08:50",0.0,6.4,94.0,1016.6,266.9,0.7,1.2,266.7,0.11,5.5,8.7,"08:47:20",1
"20/03/13","09:00",0.0,7.3,92.9,1016.8,222.8,0.3,1.0,291.5,0.16,6.3,8.7,"08:57:12",1
"20/03/13","09:10",0.0,7.9,92.7,1016.8,271.8,0.2,0.8,130.6,0.18,6.8,8.7,"09:01:04",1
"20/03/13","09:20",0.0,7.9,91.5,1016.8,158.9,0.6,1.6,121.3,0.19,6.6,9.0,"09:13:36",1
"20/03/13","09:30",0.0,8.7,89.8,1017.1,181.6,0.7,1.4,202.0,0.27,7.2,9.1,"09:25:04",1
"20/03/13","09:40",0.0,9.0,86.7,1017.5,158.3,0.6,1.2,111.3,0.26,6.9,9.3,"09:31:20",1
"20/03/13","09:50",0.0,9.4,82.4,1017.3,176.4,0.7,1.8,124.3,0.24,6.6,9.5,"09:42:56",1
"20/03/13","10:00",0.0,10.1,77.6,1017.3,286.9,1.1,1.9,297.3,0.28,6.4,9.7,"09:57:44",1
"20/03/13","10:10",0.0,10.6,71.5,1017.3,259.0,1.2,2.6,238.2,0.32,5.7,9.9,"10:04:00",1
"20/03/13","10:20",0.0,10.9,67.3,1017.1,186.4,1.0,2.0,180.3,0.31,5.1,10.2,"10:14:56",1
"20/03/13","10:30",0.0,11.0,66.0,1016.6,245.7,1.6,2.6,231.2,0.28,4.9,10.2,"10:26:24",1
"20/03/13","10:40",0.0,11.6,64.3,1016.6,266.8,1.1,1.9,317.6,0.33,5.1,10.2,"10:32:24",1
"20/03/13","10:50",0.0,11.9,63.8,1016.4,220.1,1.5,2.8,201.7,0.33,5.3,10.6,"10:47:12",1
"20/03/13","11:00",0.0,12.0,62.5,1016.4,224.1,1.2,2.4,215.5,0.33,5.1,10.7,"10:54:08",1
"20/03/13","11:10",0.0,12.5,61.1,1015.9,161.2,1.0,2.0,176.1,0.40,5.3,11.2,"11:07:20",1
"20/03/13","11:20",0.0,13.2,60.6,1016.1,206.8,0.8,2.6,162.8,0.44,5.8,11.2,"11:18:08",1
"20/03/13","11:30",0.0,13.8,59.8,1015.6,195.8,1.2,2.9,147.4,0.51,6.2,11.6,"11:21:52",1
"20/03/13","11:40",0.0,14.0,58.8,1015.2,134.8,1.1,2.2,111.6,0.50,6.1,11.7,"11:33:36",1
"20/03/13","11:50",0.0,14.0,58.6,1015.4,205.5,1.8,4.0,222.9,0.52,6.1,11.9,"11:41:52",1
"20/03/13","12:00",0.0,14.4,58.5,1015.2,162.5,1.7,3.4,107.6,0.50,6.4,12.2,"11:58:08",1
"20/03/13","12:10",0.0,15.0,58.4,1015.2,195.3,1.3,3.1,169.5,0.54,7.0,12.3,"12:08:00",1
"20/03/13","12:20",0.0,15.4,57.6,1014.9,183.5,1.6,3.2,122.1,0.54,7.1,12.6,"12:19:28",1
"20/03/13","12:30",0.0,15.7,56.3,1014.5,61.3,1.1,3.2,80.4,0.55,7.1,13.0,"12:20:32",1
"20/03/13","12:40",0.0,15.7,57.3,1014.5,166.2,1.8,4.2,158.8,0.54,7.3,13.2,"12:37:20",1
"20/03/13","12:50",0.0,16.2,56.0,1014.0,270.3,1.6,3.2,235.1,0.47,7.5,13.5,"12:43:12",1
"20/03/13","13:00",0.0,16.3,54.7,1013.5,251.4,1.1,2.7,108.2,0.33,7.2,13.6,"12:51:28",1
"20/03/13","13:10",0.0,16.5,54.3,1013.3,167.5,1.3,2.9,127.2,0.43,7.3,13.7,"13:09:36",1
"20/03/13","13:20",0.0,16.7,52.0,1012.8,217.5,2.1,4.7,215.2,0.38,6.8,13.8,"13:12:08",1
"20/03/13","13:30",0.0,16.7,47.9,1012.8,320.8,3.2,7.5,328.2,0.41,5.7,13.9,"13:29:28",1
"20/03/13","13:40",0.0,17.1,46.0,1012.8,302.8,3.0,5.1,337.7,0.48,5.4,14.0,"13:36:32",1
"20/03/13","13:50",0.0,17.0,43.0,1012.6,294.1,3.1,6.5,344.7,0.45,4.4,14.2,"13:49:04",1
"20/03/13","14:00",0.0,16.2,43.7,1012.6,322.7,3.0,5.7,345.8,0.23,3.9,14.2,"13:54:08",1
"20/03/13","14:10",0.0,15.9,44.8,1012.1,319.6,3.1,6.2,317.3,0.14,4.0,14.2,"14:01:44",1
"20/03/13","14:20",0.0,15.9,44.5,1011.6,313.1,2.6,4.8,346.5,0.16,3.9,14.2,"14:14:24",1
"20/03/13","14:30",0.0,16.4,43.5,1012.1,270.0,2.0,3.7,327.6,0.25,4.0,14.4,"14:22:24",1
"20/03/13","14:40",0.0,16.7,43.4,1011.4,253.4,2.2,5.9,231.9,0.37,4.2,14.3,"14:38:40",1
"20/03/13","14:50",0.0,17.1,41.1,1011.2,302.7,2.1,4.0,317.3,0.43,3.8,14.4,"14:48:00",1
"20/03/13","15:00",0.0,17.2,40.2,1011.4,322.6,2.3,5.6,336.0,0.36,3.6,14.2,"14:59:28",1
"20/03/13","15:10",0.0,17.0,37.3,1011.4,305.3,3.1,5.7,332.0,0.36,2.4,14.7,"15:04:16",1
"20/03/13","15:20",0.0,17.2,36.1,1011.4,267.0,2.2,4.0,261.8,0.32,2.1,14.4,"15:19:28",1
"20/03/13","15:30",0.0,17.6,37.7,1011.2,266.3,2.1,5.1,234.2,0.34,3.1,14.4,"15:23:52",1
"20/03/13","15:40",0.0,17.7,34.5,1010.9,290.4,2.3,5.4,319.3,0.36,1.9,14.6,"15:32:24",1
"20/03/13","15:50",0.0,17.8,35.9,1010.4,315.8,1.7,3.4,331.4,0.25,2.5,14.7,"15:48:08",1
"20/03/13","16:00",0.0,17.3,35.3,1010.4,308.1,1.3,2.7,238.9,0.16,1.9,14.7,"15:50:24",1
"20/03/13","16:10",0.0,17.3,35.3,1009.7,325.6,2.7,7.3,277.4,0.28,1.9,14.5,"16:00:02",1
"20/03/13","16:20",0.0,17.4,32.9,1010.2,242.8,2.1,5.2,227.3,0.27,1.0,14.7,"16:10:08",1
"20/03/13","16:30",0.0,17.9,33.1,1010.0,291.5,1.3,2.9,228.1,0.26,1.5,14.7,"16:29:52",1
"20/03/13","16:40",0.0,17.8,33.5,1010.2,248.0,1.1,2.7,230.4,0.22,1.6,14.7,"16:30:08",1
"20/03/13","16:50",0.0,17.6,32.7,1010.0,304.2,2.0,3.5,339.0,0.19,1.1,14.8,"16:40:48",1
"20/03/13","17:00",0.0,17.4,32.8,1010.2,278.6,1.1,2.7,229.8,0.16,0.9,14.7,"16:55:28",1
"20/03/13","17:10",0.0,17.4,32.8,1010.0,255.1,1.2,2.4,232.2,0.13,0.9,14.6,"17:09:12",1
"20/03/13","17:20",0.0,17.0,39.1,1009.7,244.8,1.8,3.9,250.6,0.11,3.0,14.7,"17:15:20",1
"20/03/13","17:30",0.0,16.4,40.8,1010.2,205.8,2.7,4.8,221.7,0.08,3.1,14.4,"17:26:32",1
"20/03/13","17:40",0.0,16.2,42.6,1009.7,191.8,2.6,4.8,173.2,0.06,3.5,14.6,"17:31:36",1
"20/03/13","17:50",0.0,15.8,43.8,1009.7,199.1,2.5,3.9,202.5,0.04,3.6,14.5,"17:44:48",1
"20/03/13","18:00",0.0,15.3,44.7,1009.7,210.7,2.2,4.4,193.4,0.02,3.4,14.2,"17:52:32",1
"20/03/13","18:10",0.0,14.9,46.3,1009.5,216.9,2.1,4.4,228.5,0.01,3.5,14.2,"18:00:56",1
"20/03/13","18:20",0.0,14.4,46.9,1010.0,226.4,2.1,4.9,233.1,0.00,3.3,14.0,"18:12:32",1
"20/03/13","18:30",0.0,14.2,47.2,1009.5,286.0,1.1,4.0,232.3,0.00,3.2,13.7,"18:20:48",1
"20/03/13","18:40",0.0,13.7,49.1,1009.7,328.3,1.2,1.6,332.7,0.00,3.3,13.7,"18:33:36",1
"20/03/13","18:50",0.0,12.5,56.3,1009.7,329.7,1.8,2.2,330.3,0.00,4.1,13.5,"18:40:34",1
"20/03/13","19:00",0.0,11.9,59.7,1010.0,342.6,1.3,1.7,342.7,0.00,4.4,13.3,"18:52:04",1
"20/03/13","19:10",0.0,11.2,61.9,1009.5,312.5,1.3,2.2,322.6,0.00,4.2,13.4,"19:09:54",1
"20/03/13","19:20",0.0,10.6,64.0,1009.7,318.2,1.5,2.0,316.8,0.00,4.1,13.2,"19:12:26",1
"20/03/13","19:30",0.0,10.4,66.2,1009.7,330.3,2.1,3.2,333.4,0.00,4.4,12.9,"19:28:08",1
"20/03/13","19:40",0.0,10.3,67.5,1010.0,319.1,2.5,3.2,329.6,0.00,4.6,13.0,"19:33:46",1
"20/03/13","19:50",0.0,10.0,68.1,1010.0,314.4,1.8,2.9,334.2,0.00,4.4,12.7,"19:45:28",1
"20/03/13","20:00",0.0,9.8,68.8,1010.2,305.1,1.6,2.7,318.4,0.00,4.4,12.7,"19:59:04",1
"20/03/13","20:10",0.0,9.6,69.5,1010.0,279.0,1.6,2.2,292.3,0.00,4.3,12.4,"20:00:02",1
"20/03/13","20:20",0.0,9.4,70.2,1010.2,287.2,1.8,2.8,298.4,0.00,4.3,12.5,"20:11:52",1
"20/03/13","20:30",0.0,9.4,70.8,1010.2,277.6,1.8,2.5,280.9,0.00,4.4,12.5,"20:22:08",1
"20/03/13","20:40",0.0,9.2,71.1,1010.2,286.1,1.7,2.7,296.9,0.00,4.3,12.2,"20:37:12",1
"20/03/13","20:50",0.0,9.1,71.5,1010.4,312.4,2.2,3.3,323.3,0.00,4.3,12.2,"20:47:04",1
"20/03/13","21:00",0.0,8.8,72.0,1010.2,293.8,1.8,3.2,304.1,0.00,4.1,12.1,"20:54:00",1
"20/03/13","21:10",0.0,8.7,72.4,1010.2,282.1,2.1,2.7,262.2,0.00,4.1,12.1,"21:00:16",1
"20/03/13","21:20",0.0,8.8,72.8,1010.0,294.7,2.1,3.2,306.2,0.00,4.2,11.8,"21:16:08",1
"20/03/13","21:30",0.0,8.5,73.1,1010.0,303.2,2.0,2.5,324.7,0.00,4.0,11.7,"21:25:36",1
"20/03/13","21:40",0.0,8.1,73.7,1010.0,297.6,1.7,2.2,272.8,0.00,3.7,11.7,"21:32:08",1
"20/03/13","21:50",0.0,7.9,74.5,1009.3,311.7,2.1,3.2,314.2,0.00,3.7,11.5,"21:48:32",1
"20/03/13","22:00",0.0,7.7,75.2,1010.0,318.3,2.0,2.6,318.8,0.00,3.6,11.6,"21:52:48",1
"20/03/13","22:10",0.0,7.6,76.1,1010.0,296.1,1.8,3.7,310.5,0.00,3.7,11.1,"22:09:20",1
"20/03/13","22:20",0.0,7.6,76.6,1010.0,299.7,1.8,2.7,313.6,0.00,3.8,11.3,"22:10:24",1
"20/03/13","22:30",0.0,7.6,77.1,1010.0,292.3,1.8,2.6,305.9,0.00,3.9,11.3,"22:22:48",1
"20/03/13","22:40",0.0,7.7,77.4,1010.0,276.7,2.1,2.7,265.8,0.00,4.0,11.2,"22:35:36",1
"20/03/13","22:50",0.0,7.7,77.6,1009.7,315.9,2.1,3.3,319.1,0.00,4.1,11.0,"22:44:00",1
"20/03/13","23:00",0.0,7.7,77.9,1009.5,326.6,1.8,3.9,331.9,0.00,4.1,11.0,"22:57:12",1
"20/03/13","23:10",0.0,8.0,77.8,1009.7,324.5,2.8,4.5,321.1,0.00,4.4,11.0,"23:05:52",1
"20/03/13","23:20",0.0,8.1,77.3,1009.7,326.4,3.1,4.4,328.9,0.00,4.4,10.9,"23:19:12",1
"20/03/13","23:30",0.0,8.2,76.7,1009.5,329.4,3.0,4.5,323.1,0.00,4.4,10.9,"23:28:16",1
"20/03/13","23:40",0.0,8.5,75.8,1009.7,320.0,4.1,5.7,330.8,0.00,4.5,10.9,"23:39:44",1
"20/03/13","23:50",0.0,8.8,74.9,1009.7,324.5,4.7,7.2,336.9,0.00,4.6,10.9,"23:45:44",1
"20/03/13","24:00",0.0,8.7,74.2,1010.0,320.2,4.1,5.7,338.7,0.00,4.4,10.8,"23:54:40",1
